Date String (YYYY-MM-DD hh:mm:ss) UTC,Instrument flags,Ambient pressure (hPa),Sample flow (lpm),Bypass flow (lpm),Sample temperature (°C),Ambient temperature (°C),ASC tube jacket temperature (°C),LED temperature (°C),Box temperature (°C),Sample RH (%),Span deviation,Mass concentration (μg/m³),Mass concentration (μg/m³),Mass concentration (μg/m³)
DateTimeUTC,F1_M11,P_M11,Q1_M11,Q2_M11,T1_M11,T2_M11,T3_M11,T4_M11,T5_M11,U1_M11,ZSPAN_M11,X0_M11,X2_M11,X1_M11
2023-01-18 00:00:00,,0813.9,5.00,0.00,22.6,21.0,00.0,31.4,24.4,16.3,0000.0,0011.47,0006.78,0006.39
2023-01-18 00:01:00,,0813.9,5.00,0.00,22.6,21.0,00.0,31.4,24.4,16.3,-002.1,0011.80,0006.77,0006.36
2023-01-18 00:02:00,,0813.8,5.00,0.00,22.6,21.0,00.0,31.4,24.4,16.4,-002.5,0011.03,0006.75,0006.34
2023-01-18 00:03:00,,0814.3,5.01,0.00,22.6,21.0,00.0,31.4,24.4,16.4,-002.3,0010.98,0006.73,0006.31
2023-01-18 00:04:00,,0814.2,5.01,0.00,22.6,21.0,00.0,31.4,24.3,16.4,-002.2,0011.04,0006.73,0006.27
2023-01-18 00:05:00,,0814.0,5.01,0.00,22.6,21.0,00.0,31.4,24.4,16.4,-003.0,0010.98,0006.69,0006.25
2023-01-18 00:06:00,,0814.2,5.01,0.00,22.6,21.6,00.0,31.4,24.5,16.4,-002.7,0010.94,0006.66,0006.22
2023-01-18 00:07:00,,0814.2,5.00,0.00,22.7,22.5,00.0,31.4,24.7,16.3,-002.6,0011.13,0006.63,0006.19
2023-01-18 00:08:00,,0814.2,5.00,0.00,22.8,23.1,00.0,31.4,24.9,16.2,-001.5,0010.69,0006.57,0006.15
2023-01-18 00:09:00,,0814.1,4.99,0.00,22.9,22.8,00.0,31.5,24.9,16.2,-002.5,0011.14,0006.53,0006.14
2023-01-18 00:10:00,,0813.9,5.01,0.00,22.9,22.5,00.0,31.5,24.8,16.2,-002.8,0011.09,0006.56,0006.15
2023-01-18 00:11:00,,0813.9,5.03,0.00,22.9,22.2,00.0,31.5,24.8,16.2,-002.9,0010.55,0006.58,0006.16
2023-01-18 00:12:00,,0813.9,5.01,0.00,22.9,22.0,00.0,31.5,24.7,16.2,-002.4,0010.38,0006.57,0006.17
2023-01-18 00:13:00,,0813.9,5.00,0.00,22.9,21.8,00.0,31.5,24.7,16.2,-001.4,0010.85,0006.57,0006.18
2023-01-18 00:14:00,,0813.9,5.01,0.00,22.9,21.7,00.0,31.6,24.7,16.2,-001.5,0010.91,0006.61,0006.21
2023-01-18 00:15:00,,0813.9,5.00,0.00,22.9,21.5,00.0,31.6,24.7,16.2,-002.3,0010.93,0006.59,0006.23
2023-01-18 00:16:00,,0813.9,4.99,0.00,22.9,21.5,00.0,31.6,24.6,16.2,-001.9,0010.98,0006.62,0006.26
2023-01-18 00:17:00,,0813.8,4.99,0.00,22.9,21.4,00.0,31.6,24.6,16.2,-002.0,0010.95,0006.65,0006.29
2023-01-18 00:18:00,,0813.8,5.00,0.00,22.8,21.4,00.0,31.6,24.6,16.2,-001.9,0010.77,0006.70,0006.32
2023-01-18 00:19:00,,0814.2,4.99,0.00,22.8,21.3,00.0,31.6,24.6,16.2,-001.6,0010.86,0006.76,0006.36
2023-01-18 00:20:00,,0814.2,4.99,0.00,22.8,21.3,00.0,31.6,24.6,16.2,-001.5,0010.42,0006.83,0006.40
2023-01-18 00:21:00,,0814.2,5.02,0.00,22.8,21.3,00.0,31.6,24.6,16.3,-001.3,0010.44,0006.87,0006.42
2023-01-18 00:22:00,,0814.1,5.00,0.00,22.8,21.3,00.0,31.6,24.5,16.3,-001.0,0010.56,0006.92,0006.45
2023-01-18 00:23:00,,0814.1,4.99,0.00,22.8,21.3,00.0,31.6,24.5,16.3,-001.1,0010.61,0006.97,0006.48
2023-01-18 00:24:00,,0813.8,4.99,0.00,22.8,21.3,00.0,31.6,24.5,16.3,-001.7,0010.01,0006.99,0006.51
2023-01-18 00:25:00,,0813.6,5.00,0.00,22.8,21.2,00.0,31.6,24.5,16.3,-001.6,0009.94,0006.98,0006.54
2023-01-18 00:26:00,,0813.6,5.00,0.00,22.8,21.2,00.0,31.6,24.5,16.3,-000.9,0009.90,0007.02,0006.56
2023-01-18 00:27:00,,0813.6,5.00,0.00,22.7,21.2,00.0,31.6,24.5,16.3,-001.1,0009.99,0007.06,0006.58
2023-01-18 00:28:00,,0813.6,4.99,0.00,22.7,21.2,00.0,31.5,24.4,16.4,-001.1,0010.16,0007.08,0006.60
2023-01-18 00:29:00,,0813.8,5.00,0.00,22.7,21.2,00.0,31.5,24.4,16.4,-001.4,0010.10,0007.09,0006.62
2023-01-18 00:30:00,,0814.2,5.01,0.00,22.7,21.2,00.0,31.5,24.5,16.4,-001.5,0010.12,0007.11,0006.64
2023-01-18 00:31:00,,0814.3,5.00,0.00,22.7,21.2,00.0,31.5,24.4,16.4,-001.7,0010.17,0007.15,0006.68
2023-01-18 00:32:00,,0814.3,5.00,0.00,22.7,21.2,00.0,31.5,24.4,16.5,-001.4,0010.32,0007.18,0006.74
2023-01-18 00:33:00,,0814.3,5.00,0.00,22.7,21.6,00.0,31.5,24.5,16.4,-001.2,0010.93,0007.20,0006.79
2023-01-18 00:34:00,,0814.0,5.01,0.00,22.8,22.4,00.0,31.5,24.7,16.4,-000.7,0010.88,0007.23,0006.84
2023-01-18 00:35:00,,0813.8,4.99,0.00,22.9,22.7,00.0,31.5,24.8,16.3,-001.2,0010.93,0007.28,0006.88
2023-01-18 00:36:00,,0813.9,5.00,0.00,22.9,22.4,00.0,31.5,24.8,16.3,-002.0,0011.00,0007.33,0006.92
2023-01-18 00:37:00,,0813.9,5.02,0.00,22.9,22.1,00.0,31.6,24.8,16.4,-001.9,0011.03,0007.37,0006.97
2023-01-18 00:38:00,,0813.9,4.99,0.00,22.9,21.9,00.0,31.6,24.7,16.4,-001.9,0011.07,0007.42,0007.02
2023-01-18 00:39:00,,0813.9,4.98,0.00,22.9,21.7,00.0,31.6,24.7,16.4,-001.9,0011.00,0007.47,0007.08
2023-01-18 00:40:00,,0813.9,4.98,0.00,22.9,21.6,00.0,31.6,24.6,16.4,-001.6,0011.08,0007.55,0007.15
2023-01-18 00:41:00,,0814.0,5.00,0.00,22.9,21.5,00.0,31.6,24.6,16.4,-001.6,0011.32,0007.62,0007.20
2023-01-18 00:42:00,,0814.3,5.00,0.00,22.8,21.4,00.0,31.6,24.6,16.4,-001.2,0011.83,0007.63,0007.24
2023-01-18 00:43:00,,0814.1,5.00,0.00,22.8,21.3,00.0,31.6,24.6,16.5,-001.0,0012.02,0007.66,0007.27
2023-01-18 00:44:00,,0814.0,5.00,0.00,22.8,21.3,00.0,31.6,24.5,16.5,-001.7,0012.14,0007.72,0007.30
2023-01-18 00:45:00,,0814.0,4.99,0.00,22.8,21.3,00.0,31.6,24.5,16.6,-001.5,0012.87,0007.77,0007.33
2023-01-18 00:46:00,,0814.1,5.00,0.00,22.8,21.3,00.0,31.6,24.5,16.6,-001.6,0013.04,0007.83,0007.37
2023-01-18 00:47:00,,0814.1,5.02,0.00,22.8,21.2,00.0,31.6,24.4,16.6,-001.4,0013.14,0007.89,0007.41
2023-01-18 00:48:00,,0814.1,5.00,0.00,22.7,21.2,00.0,31.6,24.4,16.6,-001.6,0013.22,0007.95,0007.47
2023-01-18 00:49:00,,0814.3,5.01,0.00,22.7,21.2,00.0,31.6,24.4,16.6,-001.1,0013.25,0007.98,0007.52
2023-01-18 00:50:00,,0814.2,4.99,0.00,22.7,21.1,00.0,31.6,24.3,16.7,0000.0,0013.35,0008.03,0007.56
2023-01-18 00:51:00,,0814.3,5.00,0.00,22.7,21.0,00.0,31.5,24.3,16.7,-000.2,0013.58,0008.07,0007.60
2023-01-18 00:52:00,,0814.2,4.99,0.00,22.6,20.9,00.0,31.5,24.3,16.8,-000.6,0013.66,0008.10,0007.65
2023-01-18 00:53:00,,0814.4,5.00,0.00,22.6,20.8,00.0,31.5,24.2,16.8,-001.1,0013.03,0008.16,0007.70
2023-01-18 00:54:00,,0814.1,4.99,0.00,22.6,20.7,00.0,31.5,24.2,16.9,-001.7,0012.86,0008.19,0007.74
2023-01-18 00:55:00,,0814.2,5.00,0.00,22.5,20.7,00.0,31.5,24.2,16.9,-001.1,0012.15,0008.24,0007.80
2023-01-18 00:56:00,,0814.2,5.01,0.00,22.6,21.3,00.0,31.4,24.3,16.9,-001.0,0011.54,0008.33,0007.88
2023-01-18 00:57:00,,0814.1,4.99,0.00,22.7,22.3,00.0,31.4,24.5,16.9,-000.7,0011.51,0008.39,0007.97
2023-01-18 00:58:00,,0814.6,5.00,0.00,22.8,23.0,00.0,31.4,24.7,16.8,-000.5,0011.57,0008.48,0008.08
2023-01-18 00:59:00,,0814.7,4.99,0.00,22.8,22.7,00.0,31.5,24.7,16.7,-000.7,0011.77,0008.62,0008.22
